7 * 24
多渠道服务支持
STARLINK-32407 是 SpaceX Starlink 卫星互联网项目中的一颗低轨卫星,属于第三代“星链”卫星群。该卫星由 SpaceX 研制并发射,旨在为全球用户提供高速、低延迟的宽带互联网服务。它运行在约 550 公里的轨道高度,配备先进通信设备,支持大规模用户接入。作为 Starlink 计划的一部分,该卫星有助于扩展网络覆盖范围,提升偏远地区的网络连接能力,推动全球数字基础设施的发展。
美国
(US)
| 数据来源 | 国际轨道数据 |
| 星历时间: | 2025-12-19T19:51:43+0800 21小时前 查看轨道信息 |
| 半长轴: | 6950.185km |
| 偏心率: | 0.0002924 |
| 轨道倾角: | 70.002° |
| 近地点辐角 | 273.138° |
| 升交点赤经 | 6.608° |
| 平近点角 | 86.944° |
| 近地点: | 570.015km |
| 远地点: | 574.081km |
| 周期: | 96.107分钟 |
| 每日圈数: | 14.983327 |